User: anonymous   Login
Location: Los Gatos B&B
(42.6926°N, 77.0646°W)
Time: 17:36:22
(UTC-05:00)
Language:

SL-16 R/B - Orbit

View from above orbital plane
View from above orbital plane
View from above satellite
View from above satellite

Ground track
Ground track

The orbit data is extracted from the following two-line orbital elements,

1 28353U 04021B   15030.19450253 -.00000084  00000-0 -19013-4 0  9381
2 28353 071.0001 100.7923 0002833 065.7943 358.0275 14.14105774549310
Epoch (UTC): 30 January 2015 04:40:05
Eccentricity: 0.0002833
inclination: 71.0001°
perigee height: 843 km
apogee height: 847 km
right ascension of ascending node: 100.7923°
argument of perigee: 65.7943°
revolutions per day: 14.14105774
mean anomaly at epoch: 358.0275°
orbit number at epoch: 54931

The dashed part of the orbit path shows where the satellite is in the earth's shadow,  

DLR